Year,Month,Day,Hour,Minute,Value (Times are PST for temperature in C)
2008,08,17,00,00,24.50
2008,08,17,00,01,24.50
2008,08,17,00,02,24.50
2008,08,17,00,03,24.50
2008,08,17,00,04,24.40
2008,08,17,00,05,24.40
2008,08,17,00,06,24.40
2008,08,17,00,07,24.40
2008,08,17,00,08,24.40
2008,08,17,00,09,24.30
2008,08,17,00,10,24.30
2008,08,17,00,11,24.30
2008,08,17,00,12,24.30
2008,08,17,00,13,24.30
2008,08,17,00,14,24.30
2008,08,17,00,15,24.20
2008,08,17,00,16,24.20
2008,08,17,00,17,24.20
2008,08,17,00,18,24.20
2008,08,17,00,19,24.20
2008,08,17,00,20,24.20
2008,08,17,00,21,24.20
2008,08,17,00,22,24.20
2008,08,17,00,23,24.20
2008,08,17,00,24,24.10
2008,08,17,00,25,24.10
2008,08,17,00,26,24.10
2008,08,17,00,27,24.10
2008,08,17,00,28,24.10
2008,08,17,00,29,24.00
2008,08,17,00,30,24.00
2008,08,17,00,31,24.00
2008,08,17,00,32,24.00
2008,08,17,00,33,24.00
2008,08,17,00,34,24.00
2008,08,17,00,35,23.90
2008,08,17,00,36,23.90
2008,08,17,00,37,23.90
2008,08,17,00,38,23.80
2008,08,17,00,39,23.80
2008,08,17,00,40,23.80
2008,08,17,00,41,23.80
2008,08,17,00,42,23.80
2008,08,17,00,43,23.70
2008,08,17,00,44,23.70
2008,08,17,00,45,23.60
2008,08,17,00,46,23.60
2008,08,17,00,47,23.60
2008,08,17,00,48,23.60
2008,08,17,00,49,23.60
2008,08,17,00,50,23.60
2008,08,17,00,51,23.50
2008,08,17,00,52,23.50
2008,08,17,00,53,23.50
2008,08,17,00,54,23.50
2008,08,17,00,55,23.50
2008,08,17,00,56,23.50
2008,08,17,00,57,23.50
2008,08,17,00,58,23.50
2008,08,17,00,59,23.40
2008,08,17,01,00,23.40
2008,08,17,01,01,23.40
2008,08,17,01,02,23.40
2008,08,17,01,03,23.40
2008,08,17,01,04,23.40
2008,08,17,01,05,23.40
2008,08,17,01,06,23.40
2008,08,17,01,07,23.40
2008,08,17,01,08,23.40
2008,08,17,01,09,23.40
2008,08,17,01,10,23.50
2008,08,17,01,11,23.50
2008,08,17,01,12,23.50
2008,08,17,01,13,23.50
2008,08,17,01,14,23.40
2008,08,17,01,15,23.40
2008,08,17,01,16,23.40
2008,08,17,01,17,23.40
2008,08,17,01,18,23.40
2008,08,17,01,19,23.40
2008,08,17,01,20,23.40
2008,08,17,01,21,23.30
2008,08,17,01,22,23.30
2008,08,17,01,23,23.30
2008,08,17,01,24,23.30
2008,08,17,01,25,23.30
2008,08,17,01,26,23.20
2008,08,17,01,27,23.20
2008,08,17,01,28,23.20
2008,08,17,01,29,23.20
2008,08,17,01,30,23.20
2008,08,17,01,31,23.20
2008,08,17,01,32,23.20
2008,08,17,01,33,23.10
2008,08,17,01,34,23.10
2008,08,17,01,35,23.10
2008,08,17,01,36,23.00
2008,08,17,01,37,23.00
2008,08,17,01,38,23.00
2008,08,17,01,39,22.90
2008,08,17,01,40,22.90
2008,08,17,01,41,22.90
2008,08,17,01,42,22.90
2008,08,17,01,43,22.90
2008,08,17,01,44,22.90
2008,08,17,01,45,22.90
2008,08,17,01,46,22.90
2008,08,17,01,47,22.80
2008,08,17,01,48,22.80
2008,08,17,01,49,22.80
2008,08,17,01,50,22.80
2008,08,17,01,51,22.80
2008,08,17,01,52,22.80
2008,08,17,01,53,22.70
2008,08,17,01,54,22.70
2008,08,17,01,55,22.70
2008,08,17,01,56,22.70
2008,08,17,01,57,22.80
2008,08,17,01,58,22.80
2008,08,17,01,59,22.80
2008,08,17,02,00,22.80
2008,08,17,02,01,22.80
2008,08,17,02,02,22.80
2008,08,17,02,03,22.80
2008,08,17,02,04,22.70
2008,08,17,02,05,22.70
2008,08,17,02,06,22.70
2008,08,17,02,07,22.60
2008,08,17,02,08,22.60
2008,08,17,02,09,22.50
2008,08,17,02,10,22.50
2008,08,17,02,11,22.40
2008,08,17,02,12,22.40
2008,08,17,02,13,22.40
2008,08,17,02,14,22.40
2008,08,17,02,15,22.40
2008,08,17,02,16,22.40
2008,08,17,02,17,22.40
2008,08,17,02,18,22.30
2008,08,17,02,19,22.30
2008,08,17,02,20,22.30
2008,08,17,02,21,22.30
2008,08,17,02,22,22.20
2008,08,17,02,23,22.20
2008,08,17,02,24,22.20
2008,08,17,02,25,22.10
2008,08,17,02,26,22.10
2008,08,17,02,27,22.00
2008,08,17,02,28,22.00
2008,08,17,02,29,21.90
2008,08,17,02,30,21.90
2008,08,17,02,31,21.80
2008,08,17,02,32,21.80
2008,08,17,02,33,21.80
2008,08,17,02,34,21.80
2008,08,17,02,35,21.80
2008,08,17,02,36,21.80
2008,08,17,02,37,21.80
2008,08,17,02,38,21.80
2008,08,17,02,39,21.80
2008,08,17,02,40,21.70
2008,08,17,02,41,21.70
2008,08,17,02,42,21.70
2008,08,17,02,43,21.70
2008,08,17,02,44,21.70
2008,08,17,02,45,21.70
2008,08,17,02,46,21.70
2008,08,17,02,47,21.70
2008,08,17,02,48,21.60
2008,08,17,02,49,21.60
2008,08,17,02,50,21.60
2008,08,17,02,51,21.60
2008,08,17,02,52,21.50
2008,08,17,02,53,21.50
2008,08,17,02,54,21.40
2008,08,17,02,55,21.40
2008,08,17,02,56,21.40
2008,08,17,02,57,21.40
2008,08,17,02,58,21.30
2008,08,17,02,59,21.30
2008,08,17,03,00,21.30
2008,08,17,03,01,21.20
2008,08,17,03,02,21.20
2008,08,17,03,03,21.20
2008,08,17,03,04,21.20
2008,08,17,03,05,21.10
2008,08,17,03,06,21.10
2008,08,17,03,07,21.10
2008,08,17,03,08,21.10
2008,08,17,03,09,21.00
2008,08,17,03,10,21.00
2008,08,17,03,11,20.90
2008,08,17,03,12,20.90
2008,08,17,03,13,20.90
2008,08,17,03,14,20.80
2008,08,17,03,15,20.80
2008,08,17,03,16,20.80
2008,08,17,03,17,20.70
2008,08,17,03,18,20.70
2008,08,17,03,19,20.60
2008,08,17,03,20,20.60
2008,08,17,03,21,20.60
2008,08,17,03,22,20.50
2008,08,17,03,23,20.50
2008,08,17,03,24,20.50
2008,08,17,03,25,20.50
2008,08,17,03,26,20.40
2008,08,17,03,27,20.40
2008,08,17,03,28,20.40
2008,08,17,03,29,20.40
2008,08,17,03,30,20.40
2008,08,17,03,31,20.40
2008,08,17,03,32,20.30
2008,08,17,03,33,20.30
2008,08,17,03,34,20.30
2008,08,17,03,35,20.30
2008,08,17,03,36,20.30
2008,08,17,03,37,20.30
2008,08,17,03,38,20.30
2008,08,17,03,39,20.30
2008,08,17,03,40,20.30
2008,08,17,03,41,20.30
2008,08,17,03,42,20.30
2008,08,17,03,43,20.30
2008,08,17,03,44,20.30
2008,08,17,03,45,20.30
2008,08,17,03,46,20.30
2008,08,17,03,47,20.30
2008,08,17,03,48,20.30
2008,08,17,03,49,20.30
2008,08,17,03,50,20.30
2008,08,17,03,51,20.30
2008,08,17,03,52,20.30
2008,08,17,03,53,20.30
2008,08,17,03,54,20.20
2008,08,17,03,55,20.20
2008,08,17,03,56,20.20
2008,08,17,03,57,20.20
2008,08,17,03,58,20.20
2008,08,17,03,59,20.20
2008,08,17,04,00,20.10
2008,08,17,04,01,20.10
2008,08,17,04,02,20.00
2008,08,17,04,03,20.00
2008,08,17,04,04,19.90
2008,08,17,04,05,19.90
2008,08,17,04,06,19.90
2008,08,17,04,07,19.80
2008,08,17,04,08,19.80
2008,08,17,04,09,19.80
2008,08,17,04,10,19.70
2008,08,17,04,11,19.70
2008,08,17,04,12,19.70
2008,08,17,04,13,19.60
2008,08,17,04,14,19.60
2008,08,17,04,15,19.60
2008,08,17,04,16,19.60
2008,08,17,04,17,19.60
2008,08,17,04,18,19.70
2008,08,17,04,19,19.70
2008,08,17,04,20,19.80
2008,08,17,04,21,19.80
2008,08,17,04,22,19.90
2008,08,17,04,23,20.00
2008,08,17,04,24,20.00
2008,08,17,04,25,20.00
2008,08,17,04,26,20.10
2008,08,17,04,27,20.10
2008,08,17,04,28,20.10
2008,08,17,04,29,20.10
2008,08,17,04,30,20.10
2008,08,17,04,31,20.00
2008,08,17,04,32,20.00
2008,08,17,04,33,19.90
2008,08,17,04,34,19.80
2008,08,17,04,35,19.80
2008,08,17,04,36,19.70
2008,08,17,04,37,19.60
2008,08,17,04,38,19.50
2008,08,17,04,39,19.50
2008,08,17,04,40,19.40
2008,08,17,04,41,19.40
2008,08,17,04,42,19.30
2008,08,17,04,43,19.20
2008,08,17,04,44,19.20
2008,08,17,04,45,19.10
2008,08,17,04,46,19.00
2008,08,17,04,47,19.00
2008,08,17,04,48,18.90
2008,08,17,04,49,18.80
2008,08,17,04,50,18.80
2008,08,17,04,51,18.70
2008,08,17,04,52,18.70
2008,08,17,04,53,18.60
2008,08,17,04,54,18.50
2008,08,17,04,55,18.50
2008,08,17,04,56,18.40
2008,08,17,04,57,18.30
2008,08,17,04,58,18.20
2008,08,17,04,59,18.10
2008,08,17,05,00,18.10
2008,08,17,05,01,18.00
2008,08,17,05,02,17.90
2008,08,17,05,03,17.90
2008,08,17,05,04,17.80
2008,08,17,05,05,17.70
2008,08,17,05,06,17.70
2008,08,17,05,07,17.60
2008,08,17,05,08,17.60
2008,08,17,05,09,17.50
2008,08,17,05,10,17.50
2008,08,17,05,11,17.50
2008,08,17,05,12,17.50
2008,08,17,05,13,17.50
2008,08,17,05,14,17.60
2008,08,17,05,15,17.60
2008,08,17,05,16,17.60
2008,08,17,05,17,17.60
2008,08,17,05,18,17.70
2008,08,17,05,19,17.80
2008,08,17,05,20,17.90
2008,08,17,05,21,18.00
2008,08,17,05,22,18.20
2008,08,17,05,23,18.30
2008,08,17,05,24,18.40
2008,08,17,05,25,18.50
2008,08,17,05,26,18.60
2008,08,17,05,27,18.70
2008,08,17,05,28,18.80
2008,08,17,05,29,18.80
2008,08,17,05,30,18.90
2008,08,17,05,31,19.00
2008,08,17,05,32,19.00
2008,08,17,05,33,19.10
2008,08,17,05,34,19.20
2008,08,17,05,35,19.20
2008,08,17,05,36,19.30
2008,08,17,05,37,19.40
2008,08,17,05,38,19.40
2008,08,17,05,39,19.50
2008,08,17,05,40,19.50
2008,08,17,05,41,19.60
2008,08,17,05,42,19.70
2008,08,17,05,43,19.70
2008,08,17,05,44,19.70
2008,08,17,05,45,19.80
2008,08,17,05,46,19.80
2008,08,17,05,47,19.80
2008,08,17,05,48,19.80
2008,08,17,05,49,19.80
2008,08,17,05,50,19.80
2008,08,17,05,51,19.80
2008,08,17,05,52,19.80
2008,08,17,05,53,19.90
2008,08,17,05,54,19.90
2008,08,17,05,55,19.90
2008,08,17,05,56,19.90
2008,08,17,05,57,19.80
2008,08,17,05,58,19.80
2008,08,17,05,59,19.80
2008,08,17,06,00,19.80
2008,08,17,06,01,19.80
2008,08,17,06,02,19.80
2008,08,17,06,03,19.80
2008,08,17,06,04,19.70
2008,08,17,06,05,19.70
2008,08,17,06,06,19.60
2008,08,17,06,07,19.60
2008,08,17,06,08,19.50
2008,08,17,06,09,19.40
2008,08,17,06,10,19.40
2008,08,17,06,11,19.40
2008,08,17,06,12,19.30
2008,08,17,06,13,19.30
2008,08,17,06,14,19.30
2008,08,17,06,15,19.30
2008,08,17,06,16,19.20
2008,08,17,06,17,19.20
2008,08,17,06,18,19.20
2008,08,17,06,19,19.10
2008,08,17,06,20,19.00
2008,08,17,06,21,19.00
2008,08,17,06,22,19.00
2008,08,17,06,23,19.00
2008,08,17,06,24,18.90
2008,08,17,06,25,18.90
2008,08,17,06,26,18.90
2008,08,17,06,27,18.80
2008,08,17,06,28,18.80
2008,08,17,06,29,18.80
2008,08,17,06,30,18.80
2008,08,17,06,31,18.80
2008,08,17,06,32,18.90
2008,08,17,06,33,18.90
2008,08,17,06,34,18.90
2008,08,17,06,35,18.90
2008,08,17,06,36,18.90
2008,08,17,06,37,18.90
2008,08,17,06,38,18.90
2008,08,17,06,39,18.90
2008,08,17,06,40,19.00
2008,08,17,06,41,19.00
2008,08,17,06,42,19.10
2008,08,17,06,43,19.10
2008,08,17,06,44,19.20
2008,08,17,06,45,19.20
2008,08,17,06,46,19.30
2008,08,17,06,47,19.30
2008,08,17,06,48,19.30
2008,08,17,06,49,19.40
2008,08,17,06,50,19.40
2008,08,17,06,51,19.50
2008,08,17,06,52,19.50
2008,08,17,06,53,19.50
2008,08,17,06,54,19.60
2008,08,17,06,55,19.50
2008,08,17,06,56,19.50
2008,08,17,06,57,19.50
2008,08,17,06,58,19.50
2008,08,17,06,59,19.50
2008,08,17,07,00,19.40
2008,08,17,07,01,19.40
2008,08,17,07,02,19.40
2008,08,17,07,03,19.40
2008,08,17,07,04,19.30
2008,08,17,07,05,19.20
2008,08,17,07,06,19.20
2008,08,17,07,07,19.20
2008,08,17,07,08,19.10
2008,08,17,07,09,19.10
2008,08,17,07,10,19.00
2008,08,17,07,11,19.00
2008,08,17,07,12,19.00
2008,08,17,07,13,19.00
2008,08,17,07,14,19.00
2008,08,17,07,15,19.00
2008,08,17,07,16,19.00
2008,08,17,07,17,19.10
2008,08,17,07,18,19.10
2008,08,17,07,19,19.10
2008,08,17,07,20,19.10
2008,08,17,07,21,19.10
2008,08,17,07,22,19.20
2008,08,17,07,23,19.20
2008,08,17,07,24,19.20
2008,08,17,07,25,19.20
2008,08,17,07,26,19.20
2008,08,17,07,27,19.20
2008,08,17,07,28,19.20
2008,08,17,07,29,19.20
2008,08,17,07,30,19.20
2008,08,17,07,31,19.20
2008,08,17,07,32,19.20
2008,08,17,07,33,19.20
2008,08,17,07,34,19.20
2008,08,17,07,35,19.20
2008,08,17,07,36,19.10
2008,08,17,07,37,19.10
2008,08,17,07,38,19.10
2008,08,17,07,39,19.10
2008,08,17,07,40,19.10
2008,08,17,07,41,19.10
2008,08,17,07,42,19.10
2008,08,17,07,43,19.10
2008,08,17,07,44,19.10
2008,08,17,07,45,19.10
2008,08,17,07,46,19.20
2008,08,17,07,47,19.20
2008,08,17,07,48,19.20
2008,08,17,07,49,19.20
2008,08,17,07,50,19.20
2008,08,17,07,51,19.20
2008,08,17,07,52,19.20
2008,08,17,07,53,19.20
2008,08,17,07,54,19.20
2008,08,17,07,55,19.20
2008,08,17,07,56,19.20
2008,08,17,07,57,19.20
2008,08,17,07,58,19.20
2008,08,17,07,59,19.20
2008,08,17,08,00,19.10
2008,08,17,08,01,19.10
2008,08,17,08,02,19.10
2008,08,17,08,03,19.10
2008,08,17,08,04,19.10
2008,08,17,08,05,19.10
2008,08,17,08,06,19.20
2008,08,17,08,07,19.20
2008,08,17,08,08,19.20
2008,08,17,08,09,19.20
2008,08,17,08,10,19.20
2008,08,17,08,11,19.20
2008,08,17,08,12,19.30
2008,08,17,08,13,19.30
2008,08,17,08,14,19.30
2008,08,17,08,15,19.30
2008,08,17,08,16,19.30
2008,08,17,08,17,19.40
2008,08,17,08,18,19.40
2008,08,17,08,19,19.40
2008,08,17,08,20,19.40
2008,08,17,08,21,19.40
2008,08,17,08,22,19.40
2008,08,17,08,23,19.40
2008,08,17,08,24,19.40
2008,08,17,08,25,19.40
2008,08,17,08,26,19.40
2008,08,17,08,27,19.40
2008,08,17,08,28,19.40
2008,08,17,08,29,19.40
2008,08,17,08,30,19.40
2008,08,17,08,31,19.40
2008,08,17,08,32,19.40
2008,08,17,08,33,19.40
2008,08,17,08,34,19.40
2008,08,17,08,35,19.30
2008,08,17,08,36,19.30
2008,08,17,08,37,19.30
2008,08,17,08,38,19.20
2008,08,17,08,39,19.20
2008,08,17,08,40,19.10
2008,08,17,08,41,19.10
2008,08,17,08,42,19.00
2008,08,17,08,43,19.00
2008,08,17,08,44,19.00
2008,08,17,08,45,19.10
2008,08,17,08,46,19.10
2008,08,17,08,47,19.10
2008,08,17,08,48,19.10
2008,08,17,08,49,19.20
2008,08,17,08,50,19.20
2008,08,17,08,51,19.30
2008,08,17,08,52,19.30
2008,08,17,08,53,19.30
2008,08,17,08,54,19.30
2008,08,17,08,55,19.40
2008,08,17,08,56,19.40
2008,08,17,08,57,19.40
2008,08,17,08,58,19.40
2008,08,17,08,59,19.40
2008,08,17,09,00,19.50
2008,08,17,09,01,19.50
2008,08,17,09,02,19.60
2008,08,17,09,03,19.60
2008,08,17,09,04,19.60
2008,08,17,09,05,19.70
2008,08,17,09,06,19.70
2008,08,17,09,07,19.70
2008,08,17,09,08,19.80
2008,08,17,09,09,19.80
2008,08,17,09,10,19.80
2008,08,17,09,11,19.80
2008,08,17,09,12,19.80
2008,08,17,09,13,19.80
2008,08,17,09,14,19.80
2008,08,17,09,15,19.80
2008,08,17,09,16,19.80
2008,08,17,09,17,19.80
2008,08,17,09,18,19.80
2008,08,17,09,19,19.80
2008,08,17,09,20,19.80
2008,08,17,09,21,19.80
2008,08,17,09,22,19.90
2008,08,17,09,23,19.90
2008,08,17,09,24,19.90
2008,08,17,09,25,19.90
2008,08,17,09,26,20.00
2008,08,17,09,27,20.00
2008,08,17,09,28,20.10
2008,08,17,09,29,20.20
2008,08,17,09,30,20.20
2008,08,17,09,31,20.30
2008,08,17,09,32,20.30
2008,08,17,09,33,20.40
2008,08,17,09,34,20.40
2008,08,17,09,35,20.50
2008,08,17,09,36,20.50
2008,08,17,09,37,20.60
2008,08,17,09,38,20.60
2008,08,17,09,39,20.60
2008,08,17,09,40,20.60
2008,08,17,09,41,20.70
2008,08,17,09,42,20.70
2008,08,17,09,43,20.70
2008,08,17,09,44,20.80
2008,08,17,09,45,20.80
2008,08,17,09,46,20.80
2008,08,17,09,47,20.90
2008,08,17,09,48,21.00
2008,08,17,09,49,21.10
2008,08,17,09,50,21.30
2008,08,17,09,51,21.40
2008,08,17,09,52,21.50
2008,08,17,09,53,21.60
2008,08,17,09,54,21.60
2008,08,17,09,55,21.70
2008,08,17,09,56,21.70
2008,08,17,09,57,21.80
2008,08,17,09,58,21.80
2008,08,17,09,59,21.80
2008,08,17,10,00,21.80
2008,08,17,10,01,21.80
2008,08,17,10,02,21.80
2008,08,17,10,03,21.80
2008,08,17,10,04,21.80
2008,08,17,10,05,21.90
2008,08,17,10,06,21.90
2008,08,17,10,07,21.90
2008,08,17,10,08,21.90
2008,08,17,10,09,22.00
2008,08,17,10,10,22.00
2008,08,17,10,11,22.10
2008,08,17,10,12,22.20
2008,08,17,10,13,22.20
2008,08,17,10,14,22.30
2008,08,17,10,15,22.30
2008,08,17,10,16,22.30
2008,08,17,10,17,22.40
2008,08,17,10,18,22.40
2008,08,17,10,19,22.40
2008,08,17,10,20,22.40
2008,08,17,10,21,22.40
2008,08,17,10,22,22.50
2008,08,17,10,23,22.50
2008,08,17,10,24,22.50
2008,08,17,10,25,22.40
2008,08,17,10,26,22.40
2008,08,17,10,27,22.30
2008,08,17,10,28,22.10
2008,08,17,10,29,22.00
2008,08,17,10,30,21.90
2008,08,17,10,31,21.80
2008,08,17,10,32,21.80
2008,08,17,10,33,21.80
2008,08,17,10,34,21.80
2008,08,17,10,35,21.60
2008,08,17,10,36,21.50
2008,08,17,10,37,21.40
2008,08,17,10,38,21.30
2008,08,17,10,39,21.30
2008,08,17,10,40,21.30
2008,08,17,10,41,21.30
2008,08,17,10,42,21.30
2008,08,17,10,43,21.40
2008,08,17,10,44,21.40
2008,08,17,10,45,21.40
2008,08,17,10,46,21.40
2008,08,17,10,47,21.40
2008,08,17,10,48,21.50
2008,08,17,10,49,21.60
2008,08,17,10,50,21.60
2008,08,17,10,51,21.60
2008,08,17,10,52,21.70
2008,08,17,10,53,21.80
2008,08,17,10,54,21.80
2008,08,17,10,55,21.80
2008,08,17,10,56,21.80
2008,08,17,10,57,21.80
2008,08,17,10,58,21.80
2008,08,17,10,59,21.90
2008,08,17,11,00,21.90
2008,08,17,11,01,22.00
2008,08,17,11,02,22.00
2008,08,17,11,03,22.00
2008,08,17,11,04,22.10
2008,08,17,11,05,22.10
2008,08,17,11,06,22.00
2008,08,17,11,07,21.90
2008,08,17,11,08,21.80
2008,08,17,11,09,21.80
2008,08,17,11,10,21.80
2008,08,17,11,11,21.80
2008,08,17,11,12,21.80
2008,08,17,11,13,21.70
2008,08,17,11,14,21.60
2008,08,17,11,15,21.60
2008,08,17,11,16,21.60
2008,08,17,11,17,21.60
2008,08,17,11,18,21.50
2008,08,17,11,19,21.50
2008,08,17,11,20,21.50
2008,08,17,11,21,21.50
2008,08,17,11,22,21.40
2008,08,17,11,23,21.40
2008,08,17,11,24,21.50
2008,08,17,11,25,21.50
2008,08,17,11,26,21.50
2008,08,17,11,27,21.60
2008,08,17,11,28,21.60
2008,08,17,11,29,21.60
2008,08,17,11,30,21.60
2008,08,17,11,31,21.60
2008,08,17,11,32,21.70
2008,08,17,11,33,21.70
2008,08,17,11,34,21.70
2008,08,17,11,35,21.80
2008,08,17,11,36,21.80
2008,08,17,11,37,21.80
2008,08,17,11,38,21.80
2008,08,17,11,39,21.80
2008,08,17,11,40,21.80
2008,08,17,11,41,21.90
2008,08,17,11,42,21.90
2008,08,17,11,43,21.80
2008,08,17,11,44,21.80
2008,08,17,11,45,21.80
2008,08,17,11,46,21.80
2008,08,17,11,47,21.70
2008,08,17,11,48,21.70
2008,08,17,11,49,21.70
2008,08,17,11,50,21.70
2008,08,17,11,51,21.80
2008,08,17,11,52,21.80
2008,08,17,11,53,21.80
2008,08,17,11,54,21.70
2008,08,17,11,55,21.70
2008,08,17,11,56,21.70
2008,08,17,11,57,21.70
2008,08,17,11,58,21.70
2008,08,17,11,59,21.80
2008,08,17,12,00,21.80
2008,08,17,12,01,21.90
2008,08,17,12,02,22.00
2008,08,17,12,03,22.10
2008,08,17,12,04,22.20
2008,08,17,12,05,22.30
2008,08,17,12,06,22.30
2008,08,17,12,07,22.30
2008,08,17,12,08,22.30
2008,08,17,12,09,22.30
2008,08,17,12,10,22.30
2008,08,17,12,11,22.20
2008,08,17,12,12,22.20
2008,08,17,12,13,22.10
2008,08,17,12,14,22.10
2008,08,17,12,15,22.10
2008,08,17,12,16,22.10
2008,08,17,12,17,22.20
2008,08,17,12,18,22.30
2008,08,17,12,19,22.30
2008,08,17,12,20,22.40
2008,08,17,12,21,22.50
2008,08,17,12,22,22.60
2008,08,17,12,23,22.60
2008,08,17,12,24,22.80
2008,08,17,12,25,22.90
2008,08,17,12,26,23.00
2008,08,17,12,27,23.00
2008,08,17,12,28,23.10
2008,08,17,12,29,23.10
2008,08,17,12,30,23.10
2008,08,17,12,31,23.10
2008,08,17,12,32,23.10
2008,08,17,12,33,23.10
2008,08,17,12,34,23.10
2008,08,17,12,35,23.10
2008,08,17,12,36,23.10
2008,08,17,12,37,23.10
2008,08,17,12,38,23.10
2008,08,17,12,39,23.10
2008,08,17,12,40,23.20
2008,08,17,12,41,23.20
2008,08,17,12,42,23.30
2008,08,17,12,43,23.40
2008,08,17,12,44,23.50
2008,08,17,12,45,23.60
2008,08,17,12,46,23.60
2008,08,17,12,47,23.70
2008,08,17,12,48,23.70
2008,08,17,12,49,23.70
2008,08,17,12,50,23.70
2008,08,17,12,51,23.70
2008,08,17,12,52,23.60
2008,08,17,12,53,23.60
2008,08,17,12,54,23.50
2008,08,17,12,55,23.40
2008,08,17,12,56,23.30
2008,08,17,12,57,23.30
2008,08,17,12,58,23.30
2008,08,17,12,59,23.30
2008,08,17,13,00,23.30
2008,08,17,13,01,23.20
2008,08,17,13,02,23.20
2008,08,17,13,03,23.20
2008,08,17,13,04,23.30
2008,08,17,13,05,23.30
2008,08,17,13,06,23.40
2008,08,17,13,07,23.50
2008,08,17,13,08,23.60
2008,08,17,13,09,23.60
2008,08,17,13,10,23.60
2008,08,17,13,11,23.60
2008,08,17,13,12,23.60
2008,08,17,13,13,23.50
2008,08,17,13,14,23.50
2008,08,17,13,15,23.40
2008,08,17,13,16,23.30
2008,08,17,13,17,23.20
2008,08,17,13,18,23.20
2008,08,17,13,19,23.20
2008,08,17,13,20,23.20
2008,08,17,13,21,23.20
2008,08,17,13,22,23.10
2008,08,17,13,23,23.10
2008,08,17,13,24,23.10
2008,08,17,13,25,23.10
2008,08,17,13,26,23.10
2008,08,17,13,27,23.10
2008,08,17,13,28,23.20
2008,08,17,13,29,23.20
2008,08,17,13,30,23.30
2008,08,17,13,31,23.40
2008,08,17,13,32,23.50
2008,08,17,13,33,23.50
2008,08,17,13,34,23.60
2008,08,17,13,35,23.70
2008,08,17,13,36,23.80
2008,08,17,13,37,23.70
2008,08,17,13,38,23.70
2008,08,17,13,39,23.70
2008,08,17,13,40,23.70
2008,08,17,13,41,23.60
2008,08,17,13,42,23.60
2008,08,17,13,43,23.60
2008,08,17,13,44,23.70
2008,08,17,13,45,23.70
2008,08,17,13,46,23.80
2008,08,17,13,47,23.90
2008,08,17,13,48,23.90
2008,08,17,13,49,24.00
2008,08,17,13,50,24.00
2008,08,17,13,51,24.10
2008,08,17,13,52,24.10
2008,08,17,13,53,24.10
2008,08,17,13,54,24.20
2008,08,17,13,55,24.20
2008,08,17,13,56,24.20
2008,08,17,13,57,24.30
2008,08,17,13,58,24.30
2008,08,17,13,59,24.30
2008,08,17,14,00,24.30
2008,08,17,14,01,24.40
2008,08,17,14,02,24.40
2008,08,17,14,03,24.40
2008,08,17,14,04,24.40
2008,08,17,14,05,24.40
2008,08,17,14,06,24.40
2008,08,17,14,07,24.40
2008,08,17,14,08,24.40
2008,08,17,14,09,24.50
2008,08,17,14,10,24.50
2008,08,17,14,11,24.60
2008,08,17,14,12,24.60
2008,08,17,14,13,24.60
2008,08,17,14,14,24.50
2008,08,17,14,15,24.50
2008,08,17,14,16,24.50
2008,08,17,14,17,24.50
2008,08,17,14,18,24.60
2008,08,17,14,19,24.60
2008,08,17,14,20,24.60
2008,08,17,14,21,24.70
2008,08,17,14,22,24.70
2008,08,17,14,23,24.70
2008,08,17,14,24,24.70
2008,08,17,14,25,24.60
2008,08,17,14,26,24.60
2008,08,17,14,27,24.50
2008,08,17,14,28,24.50
2008,08,17,14,29,24.50
2008,08,17,14,30,24.50
2008,08,17,14,31,24.40
2008,08,17,14,32,24.30
2008,08,17,14,33,24.20
2008,08,17,14,34,24.30
2008,08,17,14,35,24.30
2008,08,17,14,36,24.30
2008,08,17,14,37,24.30
2008,08,17,14,38,24.30
2008,08,17,14,39,24.20
2008,08,17,14,40,24.20
2008,08,17,14,41,24.10
2008,08,17,14,42,24.00
2008,08,17,14,43,23.90
2008,08,17,14,44,23.80
2008,08,17,14,45,23.70
2008,08,17,14,46,23.60
2008,08,17,14,47,23.40
2008,08,17,14,48,23.30
2008,08,17,14,49,23.10
2008,08,17,14,50,23.00
2008,08,17,14,51,22.90
2008,08,17,14,52,22.90
2008,08,17,14,53,22.80
2008,08,17,14,54,22.80
2008,08,17,14,55,22.80
2008,08,17,14,56,22.90
2008,08,17,14,57,23.10
2008,08,17,14,58,23.20
2008,08,17,14,59,23.40
2008,08,17,15,00,23.50
2008,08,17,15,01,23.60
2008,08,17,15,02,23.70
2008,08,17,15,03,23.80
2008,08,17,15,04,23.80
2008,08,17,15,05,23.80
2008,08,17,15,06,23.70
2008,08,17,15,07,23.80
2008,08,17,15,08,23.80
2008,08,17,15,09,23.80
2008,08,17,15,10,23.80
2008,08,17,15,11,23.90
2008,08,17,15,12,23.90
2008,08,17,15,13,24.00
2008,08,17,15,14,24.10
2008,08,17,15,15,24.10
2008,08,17,15,16,24.20
2008,08,17,15,17,24.20
2008,08,17,15,18,24.10
2008,08,17,15,19,24.10
2008,08,17,15,20,24.10
2008,08,17,15,21,24.00
2008,08,17,15,22,23.90
2008,08,17,15,23,23.80
2008,08,17,15,24,23.80
2008,08,17,15,25,23.70
2008,08,17,15,26,23.70
2008,08,17,15,27,23.70
2008,08,17,15,28,23.80
2008,08,17,15,29,23.80
2008,08,17,15,30,23.80
2008,08,17,15,31,23.80
2008,08,17,15,32,23.80
2008,08,17,15,33,23.80
2008,08,17,15,34,23.90
2008,08,17,15,35,24.00
2008,08,17,15,36,24.10
2008,08,17,15,37,24.20
2008,08,17,15,38,24.30
2008,08,17,15,39,24.30
2008,08,17,15,40,24.30
2008,08,17,15,41,24.20
2008,08,17,15,42,24.10
2008,08,17,15,43,24.10
2008,08,17,15,44,24.10
2008,08,17,15,45,24.20
2008,08,17,15,46,24.10
2008,08,17,15,47,24.20
2008,08,17,15,48,24.20
2008,08,17,15,49,24.30
2008,08,17,15,50,24.30
2008,08,17,15,51,24.30
2008,08,17,15,52,24.30
2008,08,17,15,53,24.20
2008,08,17,15,54,24.30
2008,08,17,15,55,24.30
2008,08,17,15,56,24.40
2008,08,17,15,57,24.50
2008,08,17,15,58,24.50
2008,08,17,15,59,24.40
2008,08,17,16,00,24.30
2008,08,17,16,01,24.30
2008,08,17,16,02,24.20
2008,08,17,16,03,24.20
2008,08,17,16,04,24.20
2008,08,17,16,05,24.20
2008,08,17,16,06,24.10
2008,08,17,16,07,24.00
2008,08,17,16,08,24.00
2008,08,17,16,09,23.90
2008,08,17,16,10,23.90
2008,08,17,16,11,23.90
2008,08,17,16,12,23.80
2008,08,17,16,13,23.80
2008,08,17,16,14,23.80
2008,08,17,16,15,23.80
2008,08,17,16,16,23.70
2008,08,17,16,17,23.70
2008,08,17,16,18,23.60
2008,08,17,16,19,23.60
2008,08,17,16,20,23.50
2008,08,17,16,21,23.50
2008,08,17,16,22,23.50
2008,08,17,16,23,23.40
2008,08,17,16,24,23.40
2008,08,17,16,25,23.40
2008,08,17,16,26,23.30
2008,08,17,16,27,23.30
2008,08,17,16,28,23.30
2008,08,17,16,29,23.20
2008,08,17,16,30,23.20
2008,08,17,16,31,23.10
2008,08,17,16,32,23.00
2008,08,17,16,33,23.00
2008,08,17,16,34,22.90
2008,08,17,16,35,22.90
2008,08,17,16,36,22.90
2008,08,17,16,37,22.90
2008,08,17,16,38,23.00
2008,08,17,16,39,23.00
2008,08,17,16,40,23.00
2008,08,17,16,41,23.00
2008,08,17,16,42,23.00
2008,08,17,16,43,22.90
2008,08,17,16,44,22.80
2008,08,17,16,45,22.80
2008,08,17,16,46,22.80
2008,08,17,16,47,22.80
2008,08,17,16,48,22.70
2008,08,17,16,49,22.70
2008,08,17,16,50,22.60
2008,08,17,16,51,22.50
2008,08,17,16,52,22.40
2008,08,17,16,53,22.40
2008,08,17,16,54,22.30
2008,08,17,16,55,22.30
2008,08,17,16,56,22.30
2008,08,17,16,57,22.20
2008,08,17,16,58,22.10
2008,08,17,16,59,22.10
2008,08,17,17,00,22.10
2008,08,17,17,01,22.10
2008,08,17,17,02,22.00
2008,08,17,17,03,22.00
2008,08,17,17,04,22.00
2008,08,17,17,05,22.00
2008,08,17,17,06,21.90
2008,08,17,17,07,21.90
2008,08,17,17,08,21.80
2008,08,17,17,09,21.80
2008,08,17,17,10,21.70
2008,08,17,17,11,21.70
2008,08,17,17,12,21.80
2008,08,17,17,13,21.80
2008,08,17,17,14,21.80
2008,08,17,17,15,21.80
2008,08,17,17,16,21.80
2008,08,17,17,17,21.80
2008,08,17,17,18,21.80
2008,08,17,17,19,21.80